EW9698 Weather Reports


Display with metric or nautical units.
time (UTC)temp
F
wind
direction
speed
MPH
gust
MPH
rain 1hr
in
rain 24hr
in
rain mn
in
humidity
%
barometer
mb
20260505051559 42 15 4.0 9.0 0.00 0.00 0.00 62 1012.1
20260505051102 42 24 6.0 9.0 0.00 0.00 0.00 62 1012.1
20260505050600 42 42 3.0 8.0 0.00 0.00 0.00 62 1012.1
20260505041557 43 5 6.0 11.0 0.00 0.00 0.00 63 1012.3
20260505041057 43 360 5.0 12.0 0.00 0.00 0.00 62 1012.3
20260505040559 43 329 6.0 12.0 0.00 0.00 0.00 62 1012.3
20260505040057 43 341 5.0 11.0 0.00 0.00 0.00 61 1012.4
20260505035556 43 336 6.0 13.0 0.00 0.00 0.00 62 1012.4
20260505035056 43 32 7.0 15.0 0.00 0.00 0.00 60 1012.4
20260505034556 44 24 9.0 15.0 0.00 0.00 0.00 59 1012.5
20260505034056 44 13 6.0 16.0 0.00 0.00 0.00 59 1012.4
20260505033555 44 40 9.0 16.0 0.00 0.00 0.00 59 1012.4
20260505033112 44 32 6.0 11.0 0.00 0.00 0.00 59 1012.3
20260505032554 44 28 6.0 11.0 0.00 0.00 0.00 59 1012.2
20260505032053 44 52 6.0 11.0 0.00 0.00 0.00 60 1012.0
20260505031550 44 19 7.0 14.0 0.00 0.00 0.00 59 1011.8
20260505031053 44 360 8.0 14.0 0.00 0.00 0.00 59 1011.8
20260505030551 44 26 9.0 17.0 0.00 0.00 0.00 59 1011.7
20260505030052 44 18 9.0 18.0 0.00 0.00 0.00 58 1011.7
20260505025549 45 25 11.0 18.0 0.00 0.00 0.00 57 1011.6
20260505025048 45 28 9.0 18.0 0.00 0.00 0.00 55 1011.5
20260505024547 45 18 12.0 18.0 0.00 0.00 0.00 55 1011.5
20260505024047 45 5 12.0 19.0 0.00 0.00 0.00 54 1011.4
20260505023546 45 11 13.0 19.0 0.00 0.00 0.00 54 1011.3
20260505023058 45 360 11.0 20.0 0.00 0.00 0.00 54 1011.3
20260505022549 45 28 11.0 20.0 0.00 0.00 0.00 54 1011.1
20260505022050 45 355 13.0 21.0 0.00 0.00 0.00 54 1011.1
20260505021545 45 340 15.0 21.0 0.00 0.00 0.00 54 1011.1
20260505021044 45 5 9.0 20.0 0.00 0.00 0.00 54 1011.1
20260505020545 45 355 12.0 21.0 0.00 0.00 0.00 54 1011.1
20260505020050 45 355 11.0 21.0 0.00 0.00 0.00 53 1011.2
20260505015544 46 50 14.0 20.0 0.00 0.00 0.00 54 1011.1
20260505015045 46 28 10.0 20.0 0.00 0.00 0.00 53 1010.9
20260505014542 46 347 13.0 20.0 0.00 0.00 0.00 53 1010.8
20260505014044 46 332 13.0 22.0 0.00 0.00 0.00 53 1010.7
20260505013544 46 347 15.0 22.0 0.00 0.00 0.00 52 1010.6
20260505013042 46 360 13.0 24.0 0.00 0.00 0.00 52 1010.6
20260505012542 47 330 14.0 24.0 0.00 0.00 0.00 51 1010.6
20260505012043 47 316 13.0 24.0 0.00 0.00 0.00 50 1010.6
20260505011541 47 340 10.0 22.0 0.00 0.00 0.00 50 1010.6
20260505011039 48 360 14.0 22.0 0.00 0.00 0.00 49 1010.7
20260505010539 48 350 11.0 21.0 0.00 0.00 0.00 48 1010.7
20260505010042 49 344 12.0 21.0 0.00 0.00 0.00 48 1010.8
20260505005538 49 360 10.0 20.0 0.00 0.00 0.00 48 1010.7
20260505005039 50 348 11.0 20.0 0.00 0.00 0.00 48 1010.6
20260505004546 50 360 12.0 20.0 0.00 0.00 0.00 50 1010.7
20260505004037 51 360 12.0 19.0 0.00 0.00 0.00 50 1010.7
20260505003537 51 11 10.0 18.0 0.00 0.00 0.00 50 1010.6
20260505003038 51 30 11.0 18.0 0.00 0.00 0.00 49 1010.6
20260505002537 52 45 11.0 19.0 0.00 0.00 0.00 49 1010.7
20260505002036 52 15 11.0 19.0 0.00 0.00 0.00 49 1010.7
20260505001535 53 49 10.0 18.0 0.00 0.00 0.00 49 1010.5
20260505001034 52 38 10.0 18.0 0.00 0.00 0.00 49 1010.5
20260505000534 53 360 10.0 19.0 0.00 0.00 0.00 49 1010.5
20260505000034 53 10 14.0 18.0 0.00 0.00 0.00 49 1010.5
20260504235530 53 34 7.0 16.0 0.00 0.00 0.00 49 1010.6
20260504235029 52 5 7.0 16.0 0.00 0.00 0.00 51 1010.4
20260504234536 52 355 8.0 15.0 0.00 0.00 0.00 51 1010.4
20260504234032 52 5 9.0 16.0 0.00 0.00 0.00 51 1010.5
20260504233529 52 15 8.0 17.0 0.00 0.00 0.00 50 1010.4
20260504233030 53 9 9.0 17.0 0.00 0.00 0.00 49 1010.4
20260504232529 54 355 7.0 18.0 0.00 0.00 0.00 48 1010.4
20260504232028 54 341 10.0 18.0 0.00 0.00 0.00 49 1010.5
20260504231538 52 304 10.0 18.0 0.00 0.00 0.00 50 1010.4
20260504231027 52 355 9.0 18.0 0.00 0.00 0.00 50 1010.3
20260504230527 52 304 8.0 17.0 0.00 0.00 0.00 50 1010.4
20260504230027 52 12 7.0 15.0 0.00 0.00 0.00 50 1010.3
20260504225528 52 5 10.0 16.0 0.00 0.00 0.00 49 1010.3
20260504225029 52 350 10.0 17.0 0.00 0.00 0.00 49 1010.3
20260504224528 52 339 10.0 17.0 0.00 0.00 0.00 49 1010.3
20260504224026 52 29 8.0 21.0 0.00 0.00 0.00 49 1010.2
20260504223526 53 5 14.0 21.0 0.00 0.00 0.00 49 1010.0
20260504223026 53 13 11.0 19.0 0.00 0.00 0.00 48 1010.1
20260504222528 53 5 10.0 17.0 0.00 0.00 0.00 49 1010.0
20260504222026 53 31 10.0 17.0 0.00 0.00 0.00 49 1010.0
20260504221526 53 32 11.0 24.0 0.00 0.00 0.00 48 1009.8
20260504221027 53 5 13.0 24.0 0.00 0.00 0.00 47 1009.9
20260504220524 54 9 13.0 25.0 0.00 0.00 0.00 47 1010.2
20260504220024 54 33 14.0 25.0 0.00 0.00 0.00 47 1009.9
20260504215524 54 342 12.0 24.0 0.00 0.00 0.00 47 1009.9
20260504215024 54 30 13.0 24.0 0.00 0.00 0.00 46 1010.0
20260504214532 54 11 13.0 21.0 0.00 0.00 0.00 47 1010.1
20260504214024 54 345 11.0 21.0 0.00 0.00 0.00 47 1010.2
20260504213526 54 360 11.0 21.0 0.00 0.00 0.00 47 1010.2
20260504213028 54 5 12.0 28.0 0.00 0.00 0.00 46 1009.9
20260504212523 54 21 15.0 28.0 0.00 0.00 0.00 46 1010.1
20260504212022 55 5 15.0 26.0 0.00 0.00 0.00 45 1010.1
20260504211522 56 337 12.0 24.0 0.00 0.00 0.00 44 1010.0
20260504211022 58 327 13.0 27.0 0.00 0.00 0.00 42 1010.2
20260504210525 59 11 14.0 21.0 0.00 0.00 0.00 42 1010.0
20260504210022 58 344 7.0 19.0 0.00 0.00 0.00 43 1010.0
20260504205524 58 331 12.0 24.0 0.00 0.00 0.00 44 1010.1
20260504205021 58 321 10.0 23.0 0.00 0.00 0.00 44 1010.0
20260504204550 59 5 11.0 23.0 0.00 0.00 0.00 42 1010.0
20260504204021 59 360 8.0 24.0 0.00 0.00 0.00 42 1009.9
20260504203522 58 348 12.0 24.0 0.00 0.00 0.00 45 1009.9
20260504203027 59 355 14.0 23.0 0.00 0.00 0.00 43 1010.0
20260504202522 58 325 10.0 22.0 0.00 0.00 0.00 44 1010.1
20260504202021 59 304 11.0 19.0 0.00 0.00 0.00 42 1010.0
20260504201520 59 319 11.0 24.0 0.00 0.00 0.00 43 1010.0
20260504201020 58 342 12.0 24.0 0.00 0.00 0.00 44 1010.1
20260504200520 58 319 14.0 26.0 0.00 0.00 0.00 44 1010.1
20260504200028 59 348 10.0 26.0 0.00 0.00 0.00 42 1010.0
20260504195519 59 17 8.0 17.0 0.00 0.00 0.00 43 1010.1
20260504195018 59 5 7.0 14.0 0.00 0.00 0.00 45 1010.2
20260504194520 56 22 6.0 13.0 0.00 0.00 0.00 48 1010.3
20260504194020 56 317 8.0 12.0 0.00 0.00 0.00 49 1010.3
20260504193517 56 337 5.0 12.0 0.00 0.00 0.00 50 1010.4
20260504193022 56 320 5.0 13.0 0.00 0.00 0.00 49 1010.5
20260504192515 57 321 8.0 13.0 0.00 0.00 0.00 47 1010.3
20260504192016 56 286 2.0 9.0 0.00 0.00 0.00 48 1010.4
20260504191515 55 18 3.0 14.0 0.00 0.00 0.00 49 1010.3
20260504191015 56 355 7.0 14.0 0.00 0.00 0.00 48 1010.5
20260504190515 56 336 3.0 11.0 0.00 0.00 0.00 48 1010.5
20260504190014 56 14 5.0 11.0 0.00 0.00 0.00 47 1010.5
20260504185516 56 53 2.0 12.0 0.00 0.00 0.00 50 1010.5
20260504185012 55 14 5.0 15.0 0.00 0.00 0.00 49 1010.6
20260504184511 55 341 8.0 15.0 0.00 0.00 0.00 50 1010.6
20260504184017 55 5 6.0 17.0 0.00 0.00 0.00 50 1010.5
20260504183511 55 34 8.0 19.0 0.00 0.00 0.00 51 1010.6
20260504183011 55 62 11.0 19.0 0.00 0.00 0.00 50 1010.5
20260504182509 54 58 6.0 20.0 0.00 0.00 0.00 51 1010.5
20260504182010 53 26 14.0 20.0 0.00 0.00 0.00 54 1010.7
20260504181511 52 40 12.0 21.0 0.00 0.00 0.00 55 1010.8
20260504181008 52 57 12.0 21.0 0.00 0.00 0.00 54 1010.8
20260504180512 51 42 14.0 20.0 0.00 0.00 0.00 56 1010.8
20260504180008 50 34 11.0 17.0 0.00 0.00 0.00 56 1010.8
20260504175507 51 22 10.0 16.0 0.00 0.00 0.00 56 1010.7
20260504175007 51 11 9.0 22.0 0.00 0.00 0.00 54 1010.7
20260504174507 50 59 9.0 22.0 0.00 0.00 0.00 54 1009.9
20260504174008 51 65 15.0 21.0 0.00 0.00 0.00 53 1010.2
20260504173508 51 43 14.0 21.0 0.00 0.00 0.00 52 1010.6
20260504173008 53 43 13.0 22.0 0.00 0.00 0.00 51 1011.0
20260504172505 54 34 14.0 22.0 0.00 0.00 0.00 51 1010.9
20260504172006 53 34 11.0 21.0 0.00 0.00 0.00 50 1010.8
20260504171516 54 40 13.0 24.0 0.00 0.00 0.00 49 1010.7
20260504171007 54 49 12.0 21.0 0.00 0.00 0.00 51 1010.4
20260504170502 53 32 12.0 21.0 0.00 0.00 0.00 52 1010.5
20260504151048 50 59 16.0 22.0 0.00 0.00 0.00 56 1009.3
20260504150550 49 50 12.0 28.0 0.00 0.00 0.00 60 1009.4
20260504141045 49 52 13.0 26.0 0.00 0.00 0.00 63 1008.9
20260504140544 50 5 13.0 25.0 0.00 0.00 0.00 60 1009.0
20260504130529 45 270 1.0 6.0 0.00 0.00 0.00 73 1007.5
20260504110517 40 238 4.0 5.0 0.00 0.00 0.00 67 1007.3
20260504100508 40 257 5.0 7.0 0.00 0.00 0.00 75 1007.7
20260504081549 39 263 4.0 6.0 0.00 0.00 0.00 80 1008.5
20260504081049 39 239 3.0 5.0 0.00 0.00 0.00 80 1008.5
20260504080549 39 258 2.0 4.0 0.00 0.00 0.00 81 1008.6